Regional Weather Roundup
Issued by NWS New Orleans/Baton Rouge, LA

Home | Current Version | Previous Version | Text Only | Print | Product List | Glossary On
Versions: 1 2 3 4 5 6 7 8 9 10 11 12 13 14 15 16 17 18 19 20 21 22 23 24 25 26 27 28 29 30 31 32 33 34 35 36 37 38 39 40 41 42 43 44 45 46 47 48 49 50
564
ASUS44 KLIX 311905
RWRLIX
NEW ORLEANS REGIONAL WEATHER ROUNDUP
NATIONAL WEATHER SERVICE NEW ORLEANS LA
200 PM CDT SUN AUG 31 2014

NOTE: "FAIR" INDICATES FEW OR NO CLOUDS BELOW 12,000 FEET WITH NO
      SIGNIFICANT WEATHER AND/OR OBSTRUCTIONS TO VISIBILITY.
      SKY/WX - SKY CONDITION AND SIGNIFICANT WEATHER.
      TMP - AIR TEMPERATURE.     DP    - DEWPOINT TEMPERATURE.
      RH  - RELATIVE HUMIDITY.   PRES  - PRESSURE.
      HI  - HEAT INDEX.          WCI   - WIND CHILL INDEX.

*  THESE STATIONS ARE NOT NWS OR FAA STATIONS AND ARE NOT UNDER
   NWS QUALITY CONTROL.

LAZ038-040-048-061>063-065>067-069-312000-
SOUTHEAST LOUISIANA

CITY           SKY/WX    TMP DP  RH WIND       PRES   REMARKS
N.O. AUDUBON     N/A     93  76  57 MISG        N/A  HX 104
N.O. INTL ARPT MOSUNNY   91  74  57 S9        30.06F HX 100
N.O. LAKEFRONT SUNNY     91  73  55 SE8G17    30.07F HX  99
N.O. DOWNTOWN*   N/A     91  73  55 SE12      30.07F HX 100
SLIDELL        MOSUNNY   90  72  55 S9        30.07F HX  97
BATON ROUGE    PTSUNNY   92  73  53 SE10      30.05F HX 100
BOOTHVILLE     MOSUNNY   89  76  65 SE10      30.08F HX 100
BELLE CHASSE   PTSUNNY   90  75  61 E10       30.05F HX 100
BOGALUSA*        N/A     93  68  44 S7        30.08F HX  97
GALLIANO*      NOT AVBL
NEW ROADS*       N/A     88  76  66 SE8       30.05S HX  99
GONZALES*      MOCLDY    90  75  61 SE7       30.04F HX 100
HAMMOND*       MOSUNNY   93  70  46 S9        30.08S HX  99
HOUMA*         NOT AVBL
PORT FOURCHON* NOT AVBL

$$

MSZ070-080>082-312000-
SOUTHERN MISSISSIPPI

CITY           SKY/WX    TMP DP  RH WIND       PRES   REMARKS
MCCOMB         CLOUDY    86  74  67 S3        30.08F
GULFPORT       SUNNY     88  77  69 SE12      30.08F HX 100
BILOXI         SUNNY     90  77  66 S9        30.09F HX 103
PASCAGOULA     MOSUNNY   91  74  57 SE10      30.08F HX 100
STENNIS ARPT*  MOSUNNY  N/A N/A N/A S8        30.08F

$$

COASTAL OBSERVATIONS
LAKE AND NEARSHORE STATIONS

STATION/POSITION TIME  TEMP    WIND        PRES    WAVE
                       AIR SEA DIR/SP/G            HT/PER
                 (UTC) (F)     (DEG/KT/KT) (MB)    (FT/S)
PASCAGOULA       1900   88     180/  7/ 13 1018.5
WAVELAND YACHT   1900   85     150/  9/ 11 1018.2
GRAND ISLE       1900   87 84  130/  8/ 12 1019.0
SOUTHWEST PASS   1900   91 90  110/ 14/ 15 1018.8
NEW CANAL        1900   92 82  140/  5/ 10 1018.5
SHELL BEACH      1900   87 80  110/ 12/ 14 1018.4

OFFSHORE STATIONS

STATION/POSITION TIME  TEMP    WIND        PRES    WAVE
                       AIR SEA DIR/SP/G            HT/PER
                 (UTC) (F)     (DEG/KT/KT) (MB)    (FT/S)

$$




USA.gov is the U.S. government's official web portal to all federal, state and local government web resources and services.